User: anonymous   Login
Location: Unspecified
(0.0000°N, 0.0000°E)
Time: 06:29:21
(UTC+00:00)
Language:

USA 119 - Orbit

View from above orbital plane
View from above orbital plane
View from above satellite
View from above satellite

Ground track
Ground track

The orbit data is extracted from the following two-line orbital elements,

1 23893U 96029A   20041.22002921 0.00000000  00000-0  00000-0 0    09
2 23893  63.3046 212.9071 3390433 265.3108  55.9220  5.52854405    02
Epoch (UTC): 10 February 2020 05:16:50
Eccentricity: 0.3390433
inclination: 63.3046°
perigee height: 2551 km
apogee height: 11712 km
right ascension of ascending node: 212.9071°
argument of perigee: 265.3108°
revolutions per day: 5.52854405
mean anomaly at epoch: 55.9220°
orbit number at epoch: 0

The dashed part of the orbit path shows where the satellite is in the earth's shadow,  

DLR